When you browse on this site, cookies collect data to enhance your experience and personalize the content and advertising you see.
Visit our Privacy Policy to learn more. By continuing to use the site, you agree to this use of cookies and data.

Hourly Weather Manaus

Today, 22 September, Tuesday

Time Temperature Precipitation Wind Pressure Humidity
00:00 +28°C° 0.2 mm 1 mps 753 mmHg 78%
01:00 +27°C° 0.2 mm 1 mps 752 mmHg 79%
02:00 +27°C° 0 mm 1 mps 752 mmHg 83%
03:00 +26°C° 1.3 mm 1 mps 753 mmHg 86%
04:00 +26°C° 1.3 mm 1 mps 753 mmHg 90%
05:00 +25°C° 1.3 mm 1 mps 753 mmHg 93%
06:00 +26°C° 0.2 mm 1 mps 754 mmHg 90%
07:00 +27°C° 0.2 mm 1 mps 754 mmHg 86%
08:00 +28°C° 0.2 mm 1 mps 755 mmHg 83%
09:00 +30°C° 0.4 mm 1 mps 755 mmHg 75%
10:00 +32°C° 0.4 mm 1 mps 755 mmHg 67%
11:00 +35°C° 0.4 mm 2 mps 755 mmHg 59%
12:00 +36°C° 0.3 mm 2 mps 754 mmHg 53%
13:00 +37°C° 0.3 mm 2 mps 753 mmHg 48%
14:00 +38°C° 0.3 mm 2 mps 752 mmHg 42%
15:00 +36°C° 0.1 mm 1 mps 752 mmHg 45%
16:00 +35°C° 0.1 mm 1 mps 751 mmHg 48%
17:00 +35°C° 0.1 mm 1 mps 751 mmHg 52%
18:00 +33°C° 0 mm 1 mps 751 mmHg 57%
19:00 +31°C° 0 mm 1 mps 752 mmHg 62%
20:00 +28°C° 0 mm 0 mps 752 mmHg 68%
21:00 +27°C° 0.2 mm 0 mps 753 mmHg 73%
22:00 +28°C° 0.2 mm 1 mps 753 mmHg 78%
23:00 +27°C° 0.2 mm 1 mps 753 mmHg 83%

Tomorrow, 23 September, Wednesday

Time Temperature Precipitation Wind Pressure Humidity
00:00 +27°C° 0 mm 1 mps 753 mmHg 84%
01:00 +27°C° 0 mm 1 mps 753 mmHg 86%
02:00 +26°C° 0 mm 1 mps 753 mmHg 87%
03:00 +26°C° 0 mm 1 mps 753 mmHg 88%
04:00 +24°C° 0 mm 0 mps 753 mmHg 89%
05:00 +24°C° 0 mm 0 mps 753 mmHg 90%
06:00 +25°C° 0.2 mm 0 mps 754 mmHg 86%
07:00 +26°C° 0.2 mm 0 mps 755 mmHg 83%
08:00 +27°C° 0.2 mm 0 mps 756 mmHg 79%
09:00 +29°C° 0.1 mm 0 mps 756 mmHg 70%
10:00 +33°C° 0.1 mm 1 mps 756 mmHg 61%
11:00 +35°C° 0.1 mm 1 mps 755 mmHg 52%
12:00 +36°C° 0.2 mm 1 mps 755 mmHg 50%
13:00 +36°C° 0.2 mm 1 mps 754 mmHg 48%
14:00 +37°C° 0.2 mm 1 mps 753 mmHg 46%
15:00 +36°C° 0 mm 1 mps 753 mmHg 47%
16:00 +36°C° 0 mm 1 mps 752 mmHg 49%
17:00 +33°C° 0 mm 0 mps 752 mmHg 51%
18:00 +31°C° 0.2 mm 0 mps 753 mmHg 57%
19:00 +30°C° 0.2 mm 0 mps 753 mmHg 62%
20:00 +28°C° 0.2 mm 0 mps 753 mmHg 68%
21:00 +27°C° 0 mm 0 mps 753 mmHg 70%
22:00 +27°C° 0 mm 0 mps 753 mmHg 72%
23:00 +26°C° 0 mm 0 mps 753 mmHg 73%

Day after tomorrow, 24 September, Thursday

Time Temperature Precipitation Wind Pressure Humidity
00:00 +26°C° 0 mm 0 mps 753 mmHg 75%
01:00 +26°C° 0 mm 0 mps 753 mmHg 76%
02:00 +25°C° 0 mm 0 mps 753 mmHg 78%
03:00 +25°C° 0 mm 0 mps 753 mmHg 79%
04:00 +25°C° 0 mm 0 mps 753 mmHg 80%
05:00 +25°C° 0 mm 0 mps 753 mmHg 81%
06:00 +26°C° 0.1 mm 0 mps 754 mmHg 76%
07:00 +28°C° 0.1 mm 0 mps 755 mmHg 70%
08:00 +32°C° 0.1 mm 1 mps 755 mmHg 65%
09:00 +34°C° 0 mm 1 mps 755 mmHg 56%
10:00 +36°C° 0 mm 1 mps 755 mmHg 48%
11:00 +39°C° 0 mm 2 mps 755 mmHg 39%
12:00 +39°C° 0 mm 1 mps 754 mmHg 38%
13:00 +39°C° 0 mm 1 mps 753 mmHg 37%
14:00 +40°C° 0 mm 1 mps 752 mmHg 36%
15:00 +39°C° 0.1 mm 1 mps 752 mmHg 39%
16:00 +34°C° 0.1 mm 0 mps 751 mmHg 42%
17:00 +33°C° 0.1 mm 0 mps 751 mmHg 45%
18:00 +32°C° 0 mm 0 mps 751 mmHg 50%
19:00 +32°C° 0 mm 1 mps 751 mmHg 56%
20:00 +31°C° 0 mm 1 mps 752 mmHg 61%
21:00 +30°C° 0 mm 1 mps 752 mmHg 62%
22:00 +30°C° 0 mm 1 mps 752 mmHg 64%
23:00 +29°C° 0 mm 1 mps 753 mmHg 66%

25 September, Friday

Time Temperature Precipitation Wind Pressure Humidity
00:00 +29°C° 0 mm 1 mps 753 mmHg 68%
01:00 +29°C° 0 mm 1 mps 752 mmHg 71%
02:00 +28°C° 0 mm 1 mps 752 mmHg 73%
03:00 +28°C° 0.6 mm 1 mps 753 mmHg 78%
04:00 +27°C° 0.6 mm 1 mps 753 mmHg 84%
05:00 +26°C° 0.6 mm 1 mps 753 mmHg 89%
06:00 +25°C° 0.5 mm 0 mps 754 mmHg 86%
07:00 +26°C° 0.5 mm 0 mps 755 mmHg 84%
08:00 +27°C° 0.5 mm 0 mps 756 mmHg 81%
09:00 +29°C° 0.9 mm 0 mps 756 mmHg 71%
10:00 +32°C° 0.9 mm 0 mps 756 mmHg 61%
11:00 +34°C° 0.9 mm 0 mps 755 mmHg 51%
12:00 +35°C° 0 mm 0 mps 754 mmHg 47%
13:00 +37°C° 0 mm 1 mps 753 mmHg 43%
14:00 +39°C° 0 mm 1 mps 752 mmHg 39%
15:00 +37°C° 0 mm 1 mps 752 mmHg 43%
16:00 +35°C° 0 mm 1 mps 751 mmHg 47%
17:00 +34°C° 0 mm 1 mps 750 mmHg 51%
18:00 +32°C° 0 mm 1 mps 751 mmHg 60%
19:00 +30°C° 0 mm 1 mps 751 mmHg 69%
20:00 +28°C° 0 mm 1 mps 751 mmHg 77%
21:00 +28°C° 0.1 mm 1 mps 752 mmHg 78%
22:00 +27°C° 0.1 mm 1 mps 752 mmHg 79%
23:00 +27°C° 0.1 mm 1 mps 753 mmHg 80%

26 September, Saturday

Time Temperature Precipitation Wind Pressure Humidity
00:00 +27°C° 0.2 mm 1 mps 752 mmHg 83%
01:00 +26°C° 0.2 mm 1 mps 752 mmHg 86%
02:00 +26°C° 0.2 mm 1 mps 752 mmHg 89%
03:00 +26°C° 0.1 mm 1 mps 752 mmHg 90%
04:00 +26°C° 0.1 mm 1 mps 752 mmHg 91%
05:00 +26°C° 0.1 mm 1 mps 752 mmHg 92%
06:00 +26°C° 0.7 mm 1 mps 753 mmHg 90%
07:00 +27°C° 0.7 mm 1 mps 754 mmHg 89%
08:00 +28°C° 0.7 mm 1 mps 755 mmHg 87%
09:00 +29°C° 0.5 mm 1 mps 755 mmHg 82%
10:00 +30°C° 0.5 mm 1 mps 754 mmHg 76%
11:00 +31°C° 0.5 mm 1 mps 754 mmHg 71%
12:00 +31°C° 2.2 mm 1 mps 753 mmHg 72%
13:00 +31°C° 2.2 mm 1 mps 752 mmHg 73%
14:00 +32°C° 2.2 mm 1 mps 752 mmHg 74%
15:00 +31°C° 0.6 mm 1 mps 751 mmHg 78%
16:00 +30°C° 0.6 mm 1 mps 751 mmHg 81%
17:00 +29°C° 0.6 mm 1 mps 751 mmHg 85%
18:00 +28°C° 0 mm 1 mps 751 mmHg 87%
19:00 +25°C° 0 mm 0 mps 751 mmHg 89%
20:00 +24°C° 0 mm 0 mps 751 mmHg 91%
21:00 +24°C° 0 mm 0 mps 751 mmHg 91%
22:00 +24°C° 0 mm 0 mps 752 mmHg 92%
23:00 +26°C° 0 mm 1 mps 752 mmHg 92%

27 September, Sunday

Time Temperature Precipitation Wind Pressure Humidity
00:00 +26°C° 0.2 mm 1 mps 752 mmHg 93%
01:00 +25°C° 0.2 mm 1 mps 752 mmHg 93%
02:00 +25°C° 0.2 mm 1 mps 751 mmHg 94%
03:00 +25°C° 0.2 mm 1 mps 751 mmHg 94%
04:00 +25°C° 0.2 mm 1 mps 752 mmHg 94%
05:00 +25°C° 0.2 mm 1 mps 752 mmHg 95%
06:00 +26°C° 0 mm 1 mps 752 mmHg 91%
07:00 +25°C° 0 mm 0 mps 753 mmHg 87%
08:00 +26°C° 0 mm 0 mps 754 mmHg 83%
09:00 +29°C° 0.1 mm 1 mps 754 mmHg 78%
10:00 +30°C° 0.1 mm 1 mps 754 mmHg 73%
11:00 +31°C° 0.1 mm 2 mps 754 mmHg 68%
12:00 +32°C° 0.9 mm 2 mps 752 mmHg 67%
13:00 +32°C° 0.9 mm 2 mps 751 mmHg 66%
14:00 +34°C° 0.9 mm 2 mps 750 mmHg 65%
15:00 +32°C° 0.1 mm 2 mps 750 mmHg 68%
16:00 +31°C° 0.1 mm 2 mps 750 mmHg 71%
17:00 +30°C° 0.1 mm 2 mps 750 mmHg 74%
18:00 +29°C° 0.2 mm 1 mps 750 mmHg 79%
19:00 +27°C° 0.2 mm 1 mps 750 mmHg 83%
20:00 +26°C° 0.2 mm 1 mps 751 mmHg 87%
21:00 +26°C° 0.7 mm 1 mps 751 mmHg 89%
22:00 +25°C° 0.7 mm 1 mps 751 mmHg 90%
23:00 +25°C° 0.7 mm 1 mps 752 mmHg 92%
Show more